GPS BIII-5 (PRN 11)

Last updated on Fri Dec 12 2025 00:03:18 GMT+0000 (Coordinated Universal Time)

1 48859U 21054A 25342.17676416 -.00000086 00000+0 00000+0 0 9993 2 48859 55.2581 340.1367 0024678 233.3994 212.8593 2.00553627 32922
UTC large
Height (km)
Speed (km/s)
/
Latitude / Longitude
Inclination (degrees)
Orbital Period (minutes)
Azimuth
Elevation
Range (km)
Doppler Factor

Next 0 passes for location: London (51.5072 / 0.1276)

Sorry there are no passes over London.